Terminal Aerodrome Forecast
Issued by NWS

Home | Current Version | Previous Version | Text Only | Print | Product List | Glossary On
Versions: 1 2 3 4 5 6 7 8 9 10 11 12 13 14 15 16 17 18 19 20 21 22 23 24 25 26 27 28 29 30 31 32 33 34
000
FTUS41 KBOX 301738
TAFBED
TAF
KBED 301738Z 3018/3118 22015G25KT P6SM FEW040
     FM310600 21011KT P6SM BKN050
     FM311200 22011KT P6SM -SHRA OVC015
     FM311500 25006KT 5SM -SHRA OVC015
     FM311700 35009KT 3SM -SHRA OVC015=

USA.gov is the U.S. government's official web portal to all federal, state and local government web resources and services.